Pompano Beach, FL

9:50 AM EST on December 15, 2017 (GMT -0500)
Pompano Beach

Weather History for KPMP - October, 2012

Change the Weather History Date:

Saturday, October 13, 2012

  Actual Average Record
Temperature  
Mean Temperature 77 °F -  
Max Temperature 81 °F 86 °F 93 °F (1986)
Min Temperature 73 °F 71 °F 61 °F (1992)
Cooling Degree Days 12    
Growing Degree Days 27 (Base 50)    
Moisture  
Dew Point 68 °F    
Average Humidity 73    
Maximum Humidity 91    
Minimum Humidity 62    
Precipitation  
Precipitation 0.03 in - - ()
Sea Level Pressure  
Sea Level Pressure 30.07 in    
Wind  
Wind Speed 17 mph (NE)    
Max Wind Speed 23 mph    
Max Gust Speed 32 mph    
Visibility 10 miles    
Events Rain    
Averages and records for this station are not official NWS values.
T = Trace of Precipitation, MM = Missing Value Source: NWS Daily Summary

Daily Weather History Graph

Daily Weather History Graph

Search for Another Location

Airport or City:

Trip Planner

Search our weather history database for the weather conditions in past years. The results will help you decide how hot, cold, wet, or windy it might be!

Date:

Astronomy

Oct. 13, 2012 Rise Set
Actual Time 7:18 AM EDT 6:53 PM EDT
Civil Twilight 6:55 AM EDT 7:17 PM EDT
Nautical Twilight 6:28 AM EDT 7:43 PM EDT
Astronomical Twilight 6:01 AM EDT 8:10 PM EDT
Moon 5:15 AM EDT (10/13) 5:31 PM EDT (10/13)
Length of Visible Light 12h 21m
Length of Day
11h 35m
Waning Crescent, 5% of the Moon is Illuminated
Oct 13
Waning Crescent
Oct 15
New
Oct 21
First Quarter
Oct 29
Full
Nov 6
Last Quarter

Hourly Weather History & Observations

Time (EDT) Temp. Heat Index Dew Point Humidity Pressure Visibility Wind Dir Wind Speed Gust Speed Precip Events Conditions
12:53 AM 75.9 °F - 64.9 °F 69% 30.09 in 10.0 mi NNE 18.4 mph 25.3 mph N/A   Partly Cloudy
1:53 AM 75.9 °F - 63.0 °F 64% 30.07 in 10.0 mi NNE 13.8 mph - N/A   Scattered Clouds
2:53 AM 75.0 °F - 66.0 °F 73% 30.06 in 10.0 mi NNE 12.7 mph - N/A   Partly Cloudy
3:53 AM 75.9 °F - 66.9 °F 74% 30.05 in 10.0 mi NNE 12.7 mph - N/A   Mostly Cloudy
4:53 AM 75.9 °F - 68.0 °F 76% 30.04 in 10.0 mi NNE 12.7 mph - N/A   Overcast
5:53 AM 73.9 °F - 70.0 °F 87% 30.05 in 9.0 mi NE 18.4 mph 23.0 mph 0.00 in Rain Light Rain
6:53 AM 73.9 °F - 71.1 °F 91% 30.06 in 10.0 mi NNE 15.0 mph - 0.02 in   Mostly Cloudy
7:53 AM 75.0 °F - 72.0 °F 90% 30.07 in 10.0 mi NNE 12.7 mph - 0.00 in   Overcast
8:53 AM 77.0 °F - 71.1 °F 82% 30.09 in 10.0 mi NE 20.7 mph 32.2 mph 0.00 in   Mostly Cloudy
9:53 AM 78.1 °F - 69.1 °F 74% 30.10 in 10.0 mi NE 19.6 mph 27.6 mph N/A   Mostly Cloudy
10:53 AM 78.1 °F - 69.1 °F 74% 30.12 in 10.0 mi NE 23.0 mph 29.9 mph N/A   Mostly Cloudy
11:53 AM 78.1 °F - 71.1 °F 79% 30.11 in 10.0 mi NE 19.6 mph 27.6 mph N/A   Mostly Cloudy
12:53 PM 78.1 °F - 68.0 °F 71% 30.09 in 10.0 mi ENE 20.7 mph 28.8 mph 0.01 in   Overcast
1:53 PM 81.0 °F 84.1 °F 69.1 °F 67% 30.07 in 10.0 mi ENE 17.3 mph 27.6 mph N/A   Scattered Clouds
2:53 PM 80.1 °F 82.1 °F 66.0 °F 62% 30.05 in 10.0 mi ENE 21.9 mph 27.6 mph N/A   Scattered Clouds
4:53 PM 80.1 °F 82.1 °F 66.0 °F 62% 30.03 in 10.0 mi ENE 20.7 mph 27.6 mph N/A   Partly Cloudy
5:53 PM 78.1 °F - 64.9 °F 64% 30.04 in 10.0 mi NE 18.4 mph 24.2 mph N/A   Mostly Cloudy
6:53 PM 77.0 °F - 64.9 °F 66% 30.04 in 10.0 mi ENE 17.3 mph 26.5 mph N/A   Scattered Clouds
8:53 PM 77.0 °F - 66.9 °F 71% 30.07 in 10.0 mi ENE 17.3 mph 26.5 mph N/A   Scattered Clouds
10:53 PM 77.0 °F - 66.0 °F 69% 30.08 in 10.0 mi ENE 18.4 mph 25.3 mph N/A   Partly Cloudy